Other Public Products
Issued by NWS Grand Forks, ND

Home | Current Version | Previous Version | Graphics & Text | Print | Product List | Glossary On
Versions: 1 2 3 4 5 6 7 8 9 10 11 12 13 14 15 16 17 18 19 20 21 22 23 24 25 26 27 28 29 30 31 32 33 34 35 36 37 38 39 40 41 42 43 44 45 46 47 48 49 50
000
FPUS83 KFGF 201131
OPUFGF
PRAIRIE TO PINES WEATHER ROUNDUP
NATIONAL WEATHER SERVICE EASTERN NORTH DAKOTA/GRAND FORKS ND
500 AM CST SAT DEC 20 2014

 **SATELLITE DATA USED TO AUGMENT SKY COVER AT AUTOMATED STATIONS**
 *****  WEATHER ACROSS EASTERN NORTH DAKOTA  *****

CITY           SKY/WX    TMP DP  RH WIND       PRES   REMARKS
GRAND FORKS    CLOUDY    28  27  96 S7        30.00S FOG     WCI  21
GRAND FORKS AF CLOUDY    28  28 100 S5        29.99F WCI  23
GRAND CITY NWS   N/A     28 N/A N/A SW5         N/A  WCI  23
BUXTON           N/A     28  28  99 S6          N/A  WCI  22
DEVILS LAKE    CLOUDY    23  16  74 S3        29.93F
FARGO          CLOUDY    31  28  89 S8        30.02F WCI  23
WAHPETON ARPT  CLOUDY    30  27  86 S6        30.04S WCI  24
$$

 *****  WEATHER ACROSS CENTRAL AND WESTERN NORTH DAKOTA  *****

CITY           SKY/WX    TMP DP  RH WIND       PRES   REMARKS
JAMESTOWN      FOG       22  19  89 SE5       29.96F VSB 1/4 WCI  16
BISMARCK       FOG       16  14  92 NE7       29.94R VSB 3/4 WCI   6
MINOT          FOG       22  20  92 SE7       29.90F VSB 1/4 WCI  13
MINOT AFB      FRZ DRZL  21  21 100 S5        29.91S VSB 1/2 WCI  15
GARRISON         N/A     20  17  88 E6        29.90S WCI  12
WILLISTON      MOCLDY    14  11  87 CALM      29.86F
DICKINSON      CLOUDY    29  24  82 S7        29.83F WCI  22
HETTINGER      CLOUDY    26  23  88 CALM      29.87F
$$

 *****  OTHER OBSERVATIONS NORTHEAST NORTH DAKOTA  *****

CITY           SKY/WX    TMP DP  RH WIND       PRES   REMARKS
WALHALLA         N/A     27  27 100 CALM      29.99S
LANGDON        CLOUDY    25  23  93 CALM      29.93F FOG
CAVALIER       CLOUDY    27  27 100 CALM      29.99S FOG
GRAFTON        NOT AVBL
CANDO          CLOUDY    23  23 100 SW6       29.95S FOG     WCI  16
FORT TOTTEN      N/A     21  20  95 SW2       29.95
ROLLA          CLOUDY    23  23 100 CALM      29.93R FOG
RUGBY          CLOUDY    23  23 100 SE3       29.94S FOG
 ***** THE ABOVE OBSERVATIONS ARE NON NWS ARE NOT QUALITY
        CONTROLLED AND MAY MIS-REPORT RAIN FOR SNOW...
$$

 *****  OTHER OBSERVATIONS SOUTHEAST NORTH DAKOTA *****

CITY           SKY/WX    TMP DP  RH WIND       PRES   REMARKS
COOPERSTOWN    NOT AVBL
VALLEY CITY    FOG       23  23 100 S7        29.97F VSB 1/4 WCI  15
OAKES          FOG       27  27 100 S8        29.99S VSB 3/4 WCI  18
GWINNER        CLOUDY    30  30 100 MISG      30.00F
SHEYENNE NWR     N/A     29  27  92 S6        29.95S WCI  23
BUFFALO        NOT AVBL
WYNDMERE         N/A     28  28 100 S7          N/A  WCI  21
 ***** THE ABOVE OBSERVATIONS ARE NON NWS ARE NOT QUALITY
       CONTROLLED AND MAY MIS-REPORT RAIN FOR SNOW...
$$

  *****  WEATHER ACROSS NORTHERN MINNESOTA  *****

CITY           SKY/WX    TMP DP  RH WIND       PRES   REMARKS
FLAG ISLAND    CLOUDY    27  25  93 S9        30.01S FOG     WCI  17
WARROAD        CLOUDY    27  23  86 CALM      30.02R FOG
ROSEAU         CLOUDY    28  23  80 SE3       30.01R HAZE
HALLOCK        CLOUDY    28  28 100 CALM      29.99S FOG
THF RVR FALLS  CLOUDY    28  28 100 SW12      30.00S WCI  18
HALSTAD          N/A     29  27  90 S6          N/A  WCI  23
FOSSTON        CLOUDY    28  27  93 SW10      30.01S FOG     WCI  19
BAUDETTE       CLOUDY    26  24  92 VRB5      30.01F FOG     WCI  20
WASKISH        CLOUDY    28  27  93 CALM      30.03S FOG
CROOKSTON      CLOUDY    28  28 100 S12       30.02S FOG     WCI  18
$$
  *****  WEATHER ACROSS CENTRAL AND WEST MINNESOTA  *****

CITY           SKY/WX    TMP DP  RH WIND       PRES   REMARKS
BEMIDJI        CLOUDY    29  28  98 S6        30.02S FOG     WCI  23
PARK RAPIDS    CLOUDY    30  28  92 S10       30.03S FOG     WCI  21
WADENA         CLOUDY    28  27  93 S8        30.04S FOG     WCI  20
DETROIT LAKES  CLOUDY    30  30 100 S13       30.02F FOG     WCI  20
MOORHEAD       CLOUDY    30  30 100 S7        30.03F WCI  23
FERGUS FALLS   CLOUDY    28  28 100 S9        30.07S FOG     WCI  20
ELBOW LAKE     CLOUDY    29  28  97 S12       30.04S FOG     WCI  19
MORRIS MN      CLOUDY    30  28  93 S10       30.05F FOG     WCI  21
STAPLES        CLOUDY    28  28 100 S9        30.05S FOG     WCI  20
WHEATON        CLOUDY    28  27  93 S8        30.06S WCI  20
$$
  *****  WEATHER ELSEWHERE ACROSS MINNESOTA  *****

CITY           SKY/WX    TMP DP  RH WIND       PRES   REMARKS
DULUTH         FRZ DRZL  26  23  88 SE7       30.11S FOG     WCI  18
INTRNTL FALLS  LGT SNOW  26  23  88 S5        30.04F FOG     WCI  20
ELY            LGT SNOW  25  23  93 S3        30.09S
CLOQUET        CLOUDY    27  25  93 SE3       30.11S FOG
BRAINERD       CLOUDY    29  28  96 S9        30.07F FOG     WCI  20
HIBBING        LGT SNOW  26  22  84 SE6       30.08S FOG     WCI  19
ALEXANDRIA     CLOUDY    29  27  92 S16       30.06S FOG     WCI  17
SAINT CLOUD    CLOUDY    32  29  88 S9        30.10S FOG     WCI  24
MINNEAPOLIS    CLOUDY    29  25  85 SE8       30.15F FOG     WCI  21
$$

  *****  WEATHER ACROSS SOUTH DAKOTA  *****

CITY           SKY/WX    TMP DP  RH WIND       PRES   REMARKS
SIOUX FALLS    CLOUDY    31  29  92 S7        30.05F WCI  24
BROOKINGS      NOT AVBL
WATERTOWN      CLOUDY    28  27  96 S9        30.00F FOG     WCI  19
HURON          FOG       26  25  96 S7        30.02F VSB 1/2 WCI  18
SISSETON         N/A     30  28  92 SW8       30.02F WCI  22
ABERDEEN       CLOUDY    27  25  92 S12       30.00F FOG     WCI  17
MITCHELL       FOG       27  27 100 S8        30.04F VSB 1/2 WCI  19
PIERRE         FOG       19  15  84 CALM      29.95S VSB<1/4
MOBRIDGE       CLEAR     18  15  88 SE6       29.91S WCI  10
RAPID CITY     CLOUDY    31  22  69 NW8       29.88F WCI  23
$$

  *****  SOME WEATHER IN NEARBY STATES *****

CITY           SKY/WX    TMP DP  RH WIND       PRES   REMARKS
GLASGOW MT     PTCLDY    26  23  88 SE6       29.81F WCI  19
GREAT FALLS MT CLEAR     33  22  63 SW16      29.85S WCI  23
CHEYENNE WY    PTCLDY    35  17  47 W28G36    29.94F WCI  22
SCOTTSBLUFF NE PTCLDY    14   9  80 CALM      29.97S
OMAHA NE       FRZ DRZL  32  31  96 S12       30.12F FOG     WCI  23
DES MOINES IA  FRZ DRZL  32  30  92 S5        30.17F FOG
DAVENPORT IA   CLOUDY    29  23  78 E6        30.25S WCI  23
CHICAGO IL     CLOUDY    29  23  78 CALM      30.26F
EAU CLAIRE WI  CLOUDY    28  21  75 S7        30.20S WCI  21
LA CROSSE WI   CLOUDY    30  23  75 S8        30.22F WCI  22
$$

  *****  SOME NATIONAL WEATHER *****

CITY           SKY/WX    TMP DP  RH WIND       PRES   REMARKS
LA GUARDIA NY  CLOUDY    31  21  66 N8        30.25R WCI  23
RALEIGH NC     CLOUDY    35  26  69 E7        30.26R
ATLANTA GA     CLOUDY    43  40  89 NE7       30.13S
NEW ORLEANS LA CLOUDY    50  47  89 NE17      30.09R FOG
OKLAHOMA CITY  CLOUDY    38  33  82 SE5       30.20R
ALBUQUERQUE NM PTCLDY    32  23  69 N6        30.18S
SALT LAKE CITY MOCLDY    39  33  79 CALM      30.13S
LOS ANGELES CA PTCLDY    53  48  83 CALM      30.16R
BOISE ID       CLOUDY    40  34  79 SE9       30.04F
SEATTLE WA     LGT RAIN  44  39  82 SE12      29.77F
$$

*** WEATHER ACROSS MANITOBA...SASKATCHEWAN AND ONTARIO ***
                ***ONTARIO***

CITY           SKY/WX    TMP DP  RH WIND       PRES   REMARKS
GERALDTON      CLOUDY    10   7  85 CALM      30.17F
THUNDER BAY    CLOUDY    23  21  93 NW3       30.19S
SIOUX LOOKOUT  FLURRIES  23  21  93 S5        30.06F WCI  17
TORONTO        PTCLDY    21  18  86 NW6       30.29R WCI  14
BIG TROUT LK   FLURRIES  18  18 100 S3        30.11S
PICKLE LAKE    FLURRIES  18  14  86 S6        30.09  WCI   9
DRYDEN         CLOUDY    23  21  93 SE6       30.04S WCI  16
KENORA         FOG       23  23 100 SE6       30.02R VSB 1/2 WCI  16
$$
                *** MANITOBA***

CITY           SKY/WX    TMP DP  RH WIND       PRES   REMARKS
BRANDON        FRZ DRZL  23  21  93 E6        29.95S FOG     WCI  16
DAUPHIN        CLOUDY    21  19  93 E6        29.96F WCI  14
ISLAND LAKE    NOT AVBL
PILOT MOUND      N/A     23  23 100 CALM        N/A
THE PAS        CLOUDY    19  18  93 SE2       29.95F
THOMPSON       FLURRIES  16  14  93 S3        30.01F
WINNIPEG       FRZ DRZL  27  25  93 VRB2      30.01  FOG
LYNN LAKE      CLOUDY    12  12 100 S9        29.91F FOG     WCI   0
CHURCHILL      FLURRIES  10   9  92 W6        30.04S WCI   1
GILLAM         LGT SNOW  12   9  85 S3        30.06S
$$
                ***SASKATCHEWAN***

CITY           SKY/WX    TMP DP  RH WIND       PRES   REMARKS
ESTEVAN        FOG       19  18  93 E10       29.86F VSB 1/4 WCI   8
KINDERSLEY     FRZ RAIN  23  21  93 W3        29.67
LLOYDMINSTER   MOCLDY    16  14  93 VRB2      29.70R
PRINCE ALBERT  LGT SNOW  16  16 100 SE10G18   29.83F FOG     WCI   3
REGINA         FOG       19  18  93 SE16      29.80F VSB 1   WCI   5



USA.gov is the U.S. government's official web portal to all federal, state and local government web resources and services.